Location: Tucson
(32.2217°N, 110.9265°W)
Time: 10:43:03
(UTC-07:00)

Envisat - Pass Details

Date: 05 October 2021
Orbit: 764 x 766 km, 98.2° (Epoch: 22 October)

Event Time Altitude Azimuth Distance (km) Brightness Sun altitude
Rises 05:48:44 0° 6° (N) 3,231 6.3 -7.6°
Reaches altitude 10° 05:51:05 10° 2° (N) 2,302 5.5 -7.1°
Maximum altitude 05:56:00 54° 286° (WNW) 928 3.1 -6.0°
Drops below altitude 10° 06:00:54 10° 210° (SSW) 2,289 5.2 -5.0°
Sets 06:03:15 0° 205° (SSW) 3,212 6.0 -4.5°
